Regional Weather Roundup
Issued by NWS Goodland, KS

Home | Current Version | Previous Version | Graphics & Text | Print | Product List | Glossary On
Versions: 1 2 3 4 5 6 7 8 9 10 11 12 13 14 15 16 17 18 19 20 21 22 23 24 25 26 27 28 29 30 31 32 33 34 35 36 37 38 39 40 41 42 43 44 45 46 47 48 49 50
000
ASUS43 KGLD 281608
RWRGLD

GOODLAND FORECAST AREA HOURLY WEATHER ROUNDUP
NATIONAL WEATHER SERVICE GOODLAND KS
1000 AM MDT FRI AUG 28 2015

...OFFICIAL OBSERVATIONS...

CITY           SKY/WX    TMP DP  RH WIND       PRES   REMARKS
GOODLAND KS    SUNNY     80  52  37 NW18      30.08R
HILL CITY KS   SUNNY     81  62  52 N10       29.97R
IMPERIAL NEB   SUNNY     80  54  40 N12G21    30.04R
MCCOOK NEB     SUNNY     79  60  52 N16       29.99R
AKRON CO       SUNNY     76  48  37 NW15      30.17R
BURLINGTON CO  SUNNY     79  51  37 NW12      30.14S
LIMON CO       SUNNY     73  51  46 N15       30.25R
$$

...UNOFFICIAL OBSERVATIONS...

CITY           SKY/WX    TMP DP  RH WIND       PRES   REMARKS
COLBY KS       SUNNY     82  57  42 NW14      30.04S
GOVE KS          N/A     81  32  17 MISG        N/A
LENORA KS        N/A     77  32  19 MISG        N/A
NORTON KS      MOSUNNY   75  61  60 N9        29.97R
SHARON SPRINGS   N/A     81  59  47 NW12G22     N/A
TRENTON NEB      N/A     77  32  19 NW12        N/A
KIT CARSON CO    N/A     77  56  47 MISG        N/A
YUMA CO          N/A     78  52  40 N12G20      N/A
$$



USA.gov is the U.S. government's official web portal to all federal, state and local government web resources and services.